Year,Month,Day,Hour,Minute,Value (Times are PST for temperature in C)
2007,08,22,00,00,13.40
2007,08,22,00,01,13.40
2007,08,22,00,02,13.40
2007,08,22,00,03,13.40
2007,08,22,00,04,13.40
2007,08,22,00,05,13.40
2007,08,22,00,06,13.40
2007,08,22,00,07,13.30
2007,08,22,00,08,13.30
2007,08,22,00,09,13.30
2007,08,22,00,10,13.30
2007,08,22,00,11,13.30
2007,08,22,00,12,13.30
2007,08,22,00,13,13.30
2007,08,22,00,14,13.30
2007,08,22,00,15,13.30
2007,08,22,00,16,13.30
2007,08,22,00,17,13.30
2007,08,22,00,18,13.30
2007,08,22,00,19,13.30
2007,08,22,00,20,13.30
2007,08,22,00,21,13.20
2007,08,22,00,22,13.20
2007,08,22,00,23,13.20
2007,08,22,00,24,13.20
2007,08,22,00,25,13.20
2007,08,22,00,26,13.20
2007,08,22,00,27,13.20
2007,08,22,00,28,13.20
2007,08,22,00,29,13.20
2007,08,22,00,30,13.20
2007,08,22,00,31,13.30
2007,08,22,00,32,13.30
2007,08,22,00,33,13.30
2007,08,22,00,34,13.30
2007,08,22,00,35,13.30
2007,08,22,00,36,13.40
2007,08,22,00,37,13.40
2007,08,22,00,38,13.40
2007,08,22,00,39,13.40
2007,08,22,00,40,13.40
2007,08,22,00,41,13.40
2007,08,22,00,42,13.40
2007,08,22,00,43,13.40
2007,08,22,00,44,13.40
2007,08,22,00,45,13.40
2007,08,22,00,46,13.40
2007,08,22,00,47,13.30
2007,08,22,00,48,13.30
2007,08,22,00,49,13.30
2007,08,22,00,50,13.30
2007,08,22,00,51,13.30
2007,08,22,00,52,13.30
2007,08,22,00,53,13.30
2007,08,22,00,54,13.30
2007,08,22,00,55,13.20
2007,08,22,00,56,13.20
2007,08,22,00,57,13.20
2007,08,22,00,58,13.20
2007,08,22,00,59,13.20
2007,08,22,01,00,13.10
2007,08,22,01,01,13.10
2007,08,22,01,02,13.10
2007,08,22,01,03,13.10
2007,08,22,01,04,13.10
2007,08,22,01,05,13.10
2007,08,22,01,06,13.00
2007,08,22,01,07,13.00
2007,08,22,01,08,13.00
2007,08,22,01,09,12.90
2007,08,22,01,10,12.90
2007,08,22,01,11,12.90
2007,08,22,01,12,12.80
2007,08,22,01,13,12.80
2007,08,22,01,14,12.80
2007,08,22,01,15,12.80
2007,08,22,01,16,12.80
2007,08,22,01,17,12.80
2007,08,22,01,18,12.80
2007,08,22,01,19,12.70
2007,08,22,01,20,12.70
2007,08,22,01,21,12.70
2007,08,22,01,22,12.70
2007,08,22,01,23,12.70
2007,08,22,01,24,12.70
2007,08,22,01,25,12.70
2007,08,22,01,26,12.70
2007,08,22,01,27,12.70
2007,08,22,01,28,12.80
2007,08,22,01,29,12.70
2007,08,22,01,30,12.80
2007,08,22,01,31,12.80
2007,08,22,01,32,12.80
2007,08,22,01,33,12.80
2007,08,22,01,34,12.80
2007,08,22,01,35,12.80
2007,08,22,01,36,12.80
2007,08,22,01,37,12.80
2007,08,22,01,38,12.80
2007,08,22,01,39,12.80
2007,08,22,01,40,12.80
2007,08,22,01,41,12.80
2007,08,22,01,42,12.80
2007,08,22,01,43,12.80
2007,08,22,01,44,12.80
2007,08,22,01,45,12.80
2007,08,22,01,46,12.70
2007,08,22,01,47,12.70
2007,08,22,01,48,12.70
2007,08,22,01,49,12.70
2007,08,22,01,50,12.70
2007,08,22,01,51,12.70
2007,08,22,01,52,12.70
2007,08,22,01,53,12.70
2007,08,22,01,54,12.70
2007,08,22,01,55,12.70
2007,08,22,01,56,12.70
2007,08,22,01,57,12.70
2007,08,22,01,58,12.70
2007,08,22,01,59,12.70
2007,08,22,02,00,12.70
2007,08,22,02,01,12.70
2007,08,22,02,02,12.70
2007,08,22,02,03,12.70
2007,08,22,02,04,12.70
2007,08,22,02,05,12.70
2007,08,22,02,06,12.70
2007,08,22,02,07,12.70
2007,08,22,02,08,12.70
2007,08,22,02,09,12.70
2007,08,22,02,10,12.70
2007,08,22,02,11,12.70
2007,08,22,02,12,12.70
2007,08,22,02,13,12.70
2007,08,22,02,14,12.70
2007,08,22,02,15,12.70
2007,08,22,02,16,12.70
2007,08,22,02,17,12.70
2007,08,22,02,18,12.70
2007,08,22,02,19,12.70
2007,08,22,02,20,12.70
2007,08,22,02,21,12.70
2007,08,22,02,22,12.70
2007,08,22,02,23,12.70
2007,08,22,02,24,12.70
2007,08,22,02,25,12.70
2007,08,22,02,26,12.70
2007,08,22,02,27,12.70
2007,08,22,02,28,12.70
2007,08,22,02,29,12.70
2007,08,22,02,30,12.70
2007,08,22,02,31,12.70
2007,08,22,02,32,12.70
2007,08,22,02,33,12.70
2007,08,22,02,34,12.70
2007,08,22,02,35,12.70
2007,08,22,02,36,12.70
2007,08,22,02,37,12.70
2007,08,22,02,38,12.70
2007,08,22,02,39,12.70
2007,08,22,02,40,12.70
2007,08,22,02,41,12.70
2007,08,22,02,42,12.70
2007,08,22,02,43,12.70
2007,08,22,02,44,12.70
2007,08,22,02,45,12.70
2007,08,22,02,46,12.70
2007,08,22,02,47,12.70
2007,08,22,02,48,12.70
2007,08,22,02,49,12.70
2007,08,22,02,50,12.70
2007,08,22,02,51,12.70
2007,08,22,02,52,12.70
2007,08,22,02,53,12.70
2007,08,22,02,54,12.70
2007,08,22,02,55,12.70
2007,08,22,02,56,12.70
2007,08,22,02,57,12.70
2007,08,22,02,58,12.70
2007,08,22,02,59,12.70
2007,08,22,03,00,12.70
2007,08,22,03,01,12.70
2007,08,22,03,02,12.70
2007,08,22,03,03,12.70
2007,08,22,03,04,12.70
2007,08,22,03,05,12.70
2007,08,22,03,06,12.80
2007,08,22,03,07,12.80
2007,08,22,03,08,12.80
2007,08,22,03,09,12.80
2007,08,22,03,10,12.80
2007,08,22,03,11,12.80
2007,08,22,03,12,12.80
2007,08,22,03,13,12.80
2007,08,22,03,14,12.80
2007,08,22,03,15,12.80
2007,08,22,03,16,12.80
2007,08,22,03,17,12.80
2007,08,22,03,18,12.80
2007,08,22,03,19,12.80
2007,08,22,03,20,12.80
2007,08,22,03,21,12.80
2007,08,22,03,22,12.80
2007,08,22,03,23,12.80
2007,08,22,03,24,12.80
2007,08,22,03,25,12.80
2007,08,22,03,26,12.80
2007,08,22,03,27,12.80
2007,08,22,03,28,12.80
2007,08,22,03,29,12.80
2007,08,22,03,30,12.80
2007,08,22,03,31,12.80
2007,08,22,03,32,12.80
2007,08,22,03,33,12.80
2007,08,22,03,34,12.80
2007,08,22,03,35,12.80
2007,08,22,03,36,12.80
2007,08,22,03,37,12.80
2007,08,22,03,38,12.80
2007,08,22,03,39,12.80
2007,08,22,03,40,12.80
2007,08,22,03,41,12.80
2007,08,22,03,42,12.90
2007,08,22,03,43,12.90
2007,08,22,03,44,12.90
2007,08,22,03,45,12.90
2007,08,22,03,46,12.90
2007,08,22,03,47,12.90
2007,08,22,03,48,12.90
2007,08,22,03,49,12.90
2007,08,22,03,50,12.90
2007,08,22,03,51,12.90
2007,08,22,03,52,12.90
2007,08,22,03,53,12.90
2007,08,22,03,54,12.90
2007,08,22,03,55,12.90
2007,08,22,03,56,12.90
2007,08,22,03,57,12.90
2007,08,22,03,58,12.90
2007,08,22,03,59,12.90
2007,08,22,04,00,12.90
2007,08,22,04,01,13.00
2007,08,22,04,02,13.00
2007,08,22,04,03,13.00
2007,08,22,04,04,13.00
2007,08,22,04,05,13.00
2007,08,22,04,06,13.00
2007,08,22,04,07,13.00
2007,08,22,04,08,13.00
2007,08,22,04,09,13.00
2007,08,22,04,10,13.00
2007,08,22,04,11,13.00
2007,08,22,04,12,13.00
2007,08,22,04,13,13.00
2007,08,22,04,14,13.00
2007,08,22,04,15,13.00
2007,08,22,04,16,13.00
2007,08,22,04,17,13.00
2007,08,22,04,18,13.00
2007,08,22,04,19,13.00
2007,08,22,04,20,13.10
2007,08,22,04,21,13.10
2007,08,22,04,22,13.10
2007,08,22,04,23,13.10
2007,08,22,04,24,13.10
2007,08,22,04,25,13.10
2007,08,22,04,26,13.10
2007,08,22,04,27,13.10
2007,08,22,04,28,13.10
2007,08,22,04,29,13.10
2007,08,22,04,30,13.10
2007,08,22,04,31,13.10
2007,08,22,04,32,13.00
2007,08,22,04,33,13.00
2007,08,22,04,34,13.00
2007,08,22,04,35,13.00
2007,08,22,04,36,13.00
2007,08,22,04,37,13.00
2007,08,22,04,38,13.00
2007,08,22,04,39,13.00
2007,08,22,04,40,13.00
2007,08,22,04,41,13.00
2007,08,22,04,42,13.00
2007,08,22,04,43,13.00
2007,08,22,04,44,13.00
2007,08,22,04,45,13.00
2007,08,22,04,46,13.00
2007,08,22,04,47,13.00
2007,08,22,04,48,13.00
2007,08,22,04,49,13.00
2007,08,22,04,50,13.00
2007,08,22,04,51,13.00
2007,08,22,04,52,13.00
2007,08,22,04,53,13.00
2007,08,22,04,54,13.00
2007,08,22,04,55,13.00
2007,08,22,04,56,13.00
2007,08,22,04,57,13.00
2007,08,22,04,58,13.00
2007,08,22,04,59,13.00
2007,08,22,05,00,13.00
2007,08,22,05,01,13.00
2007,08,22,05,02,13.00
2007,08,22,05,03,13.00
2007,08,22,05,04,13.00
2007,08,22,05,05,13.00
2007,08,22,05,06,13.00
2007,08,22,05,07,13.00
2007,08,22,05,08,13.00
2007,08,22,05,09,13.00
2007,08,22,05,10,12.90
2007,08,22,05,11,12.90
2007,08,22,05,12,12.90
2007,08,22,05,13,12.90
2007,08,22,05,14,12.90
2007,08,22,05,15,12.90
2007,08,22,05,16,12.90
2007,08,22,05,17,12.90
2007,08,22,05,18,12.90
2007,08,22,05,19,12.90
2007,08,22,05,20,12.90
2007,08,22,05,21,12.90
2007,08,22,05,22,12.90
2007,08,22,05,23,12.90
2007,08,22,05,24,12.90
2007,08,22,05,25,12.90
2007,08,22,05,26,12.90
2007,08,22,05,27,12.90
2007,08,22,05,28,12.90
2007,08,22,05,29,12.90
2007,08,22,05,30,12.90
2007,08,22,05,31,12.90
2007,08,22,05,32,12.90
2007,08,22,05,33,12.90
2007,08,22,05,34,13.00
2007,08,22,05,35,13.00
2007,08,22,05,36,13.00
2007,08,22,05,37,13.00
2007,08,22,05,38,13.00
2007,08,22,05,39,13.00
2007,08,22,05,40,13.00
2007,08,22,05,41,13.00
2007,08,22,05,42,13.00
2007,08,22,05,43,13.10
2007,08,22,05,44,13.10
2007,08,22,05,45,13.10
2007,08,22,05,46,13.10
2007,08,22,05,47,13.10
2007,08,22,05,48,13.10
2007,08,22,05,49,13.10
2007,08,22,05,50,13.10
2007,08,22,05,51,13.10
2007,08,22,05,52,13.10
2007,08,22,05,53,13.10
2007,08,22,05,54,13.10
2007,08,22,05,55,13.20
2007,08,22,05,56,13.20
2007,08,22,05,57,13.20
2007,08,22,05,58,13.20
2007,08,22,05,59,13.20
2007,08,22,06,00,13.20
2007,08,22,06,01,13.20
2007,08,22,06,02,13.20
2007,08,22,06,03,13.20
2007,08,22,06,04,13.20
2007,08,22,06,05,13.20
2007,08,22,06,06,13.20
2007,08,22,06,07,13.20
2007,08,22,06,08,13.20
2007,08,22,06,09,13.20
2007,08,22,06,10,13.20
2007,08,22,06,11,13.20
2007,08,22,06,12,13.20
2007,08,22,06,13,13.20
2007,08,22,06,14,13.20
2007,08,22,06,15,13.20
2007,08,22,06,16,13.20
2007,08,22,06,17,13.20
2007,08,22,06,18,13.20
2007,08,22,06,19,13.20
2007,08,22,06,20,13.20
2007,08,22,06,21,13.20
2007,08,22,06,22,13.20
2007,08,22,06,23,13.20
2007,08,22,06,24,13.20
2007,08,22,06,25,13.20
2007,08,22,06,26,13.20
2007,08,22,06,27,13.20
2007,08,22,06,28,13.20
2007,08,22,06,29,13.20
2007,08,22,06,30,13.20
2007,08,22,06,31,13.20
2007,08,22,06,32,13.20
2007,08,22,06,33,13.20
2007,08,22,06,34,13.20
2007,08,22,06,35,13.20
2007,08,22,06,36,13.20
2007,08,22,06,37,13.20
2007,08,22,06,38,13.20
2007,08,22,06,39,13.20
2007,08,22,06,40,13.20
2007,08,22,06,41,13.20
2007,08,22,06,42,13.20
2007,08,22,06,43,13.20
2007,08,22,06,44,13.20
2007,08,22,06,45,13.20
2007,08,22,06,46,13.20
2007,08,22,06,47,13.20
2007,08,22,06,48,13.20
2007,08,22,06,49,13.20
2007,08,22,06,50,13.20
2007,08,22,06,51,13.20
2007,08,22,06,52,13.20
2007,08,22,06,53,13.20
2007,08,22,06,54,13.20
2007,08,22,06,55,13.20
2007,08,22,06,56,13.30
2007,08,22,06,57,13.30
2007,08,22,06,58,13.30
2007,08,22,06,59,13.30
2007,08,22,07,00,13.30
2007,08,22,07,01,13.30
2007,08,22,07,02,13.30
2007,08,22,07,03,13.30
2007,08,22,07,04,13.30
2007,08,22,07,05,13.30
2007,08,22,07,06,13.40
2007,08,22,07,07,13.30
2007,08,22,07,08,13.40
2007,08,22,07,09,13.40
2007,08,22,07,10,13.40
2007,08,22,07,11,13.40
2007,08,22,07,12,13.40
2007,08,22,07,13,13.50
2007,08,22,07,14,13.50
2007,08,22,07,15,13.50
2007,08,22,07,16,13.50
2007,08,22,07,17,13.50
2007,08,22,07,18,13.50
2007,08,22,07,19,13.60
2007,08,22,07,20,13.60
2007,08,22,07,21,13.60
2007,08,22,07,22,13.60
2007,08,22,07,23,13.60
2007,08,22,07,24,13.60
2007,08,22,07,25,13.60
2007,08,22,07,26,13.60
2007,08,22,07,27,13.60
2007,08,22,07,28,13.60
2007,08,22,07,29,13.60
2007,08,22,07,30,13.70
2007,08,22,07,31,13.70
2007,08,22,07,32,13.70
2007,08,22,07,33,13.70
2007,08,22,07,34,13.70
2007,08,22,07,35,13.70
2007,08,22,07,36,13.70
2007,08,22,07,37,13.70
2007,08,22,07,38,13.70
2007,08,22,07,39,13.70
2007,08,22,07,40,13.70
2007,08,22,07,41,13.70
2007,08,22,07,42,13.70
2007,08,22,07,43,13.70
2007,08,22,07,44,13.70
2007,08,22,07,45,13.80
2007,08,22,07,46,13.80
2007,08,22,07,47,13.80
2007,08,22,07,48,13.80
2007,08,22,07,49,13.80
2007,08,22,07,50,13.80
2007,08,22,07,51,13.80
2007,08,22,07,52,13.80
2007,08,22,07,53,13.80
2007,08,22,07,54,13.80
2007,08,22,07,55,13.80
2007,08,22,07,56,13.90
2007,08,22,07,57,13.90
2007,08,22,07,58,13.90
2007,08,22,07,59,13.90
2007,08,22,08,00,13.90
2007,08,22,08,01,13.90
2007,08,22,08,02,13.90
2007,08,22,08,03,13.90
2007,08,22,08,04,14.00
2007,08,22,08,05,14.00
2007,08,22,08,06,14.00
2007,08,22,08,07,14.00
2007,08,22,08,08,14.00
2007,08,22,08,09,14.00
2007,08,22,08,10,14.00
2007,08,22,08,11,14.10
2007,08,22,08,12,14.10
2007,08,22,08,13,14.10
2007,08,22,08,14,14.10
2007,08,22,08,15,14.10
2007,08,22,08,16,14.10
2007,08,22,08,17,14.10
2007,08,22,08,18,14.10
2007,08,22,08,19,14.10
2007,08,22,08,20,14.10
2007,08,22,08,21,14.10
2007,08,22,08,22,14.10
2007,08,22,08,23,14.10
2007,08,22,08,24,14.10
2007,08,22,08,25,14.10
2007,08,22,08,26,14.20
2007,08,22,08,27,14.20
2007,08,22,08,28,14.20
2007,08,22,08,29,14.20
2007,08,22,08,30,14.20
2007,08,22,08,31,14.20
2007,08,22,08,32,14.20
2007,08,22,08,33,14.20
2007,08,22,08,34,14.30
2007,08,22,08,35,14.30
2007,08,22,08,36,14.30
2007,08,22,08,37,14.30
2007,08,22,08,38,14.30
2007,08,22,08,39,14.30
2007,08,22,08,40,14.30
2007,08,22,08,41,14.30
2007,08,22,08,42,14.30
2007,08,22,08,43,14.30
2007,08,22,08,44,14.30
2007,08,22,08,45,14.30
2007,08,22,08,46,14.30
2007,08,22,08,47,14.30
2007,08,22,08,48,14.40
2007,08,22,08,49,14.40
2007,08,22,08,50,14.40
2007,08,22,08,51,14.40
2007,08,22,08,52,14.40
2007,08,22,08,53,14.40
2007,08,22,08,54,14.40
2007,08,22,08,55,14.40
2007,08,22,08,56,14.40
2007,08,22,08,57,14.40
2007,08,22,08,58,14.40
2007,08,22,08,59,14.50
2007,08,22,09,00,14.50
2007,08,22,09,01,14.50
2007,08,22,09,02,14.60
2007,08,22,09,03,14.60
2007,08,22,09,04,14.60
2007,08,22,09,05,14.60
2007,08,22,09,06,14.60
2007,08,22,09,07,14.60
2007,08,22,09,08,14.70
2007,08,22,09,09,14.70
2007,08,22,09,10,14.70
2007,08,22,09,11,14.70
2007,08,22,09,12,14.70
2007,08,22,09,13,14.70
2007,08,22,09,14,14.80
2007,08,22,09,15,14.80
2007,08,22,09,16,14.80
2007,08,22,09,17,14.80
2007,08,22,09,18,14.90
2007,08,22,09,19,14.90
2007,08,22,09,20,14.90
2007,08,22,09,21,15.00
2007,08,22,09,22,15.00
2007,08,22,09,23,15.00
2007,08,22,09,24,15.00
2007,08,22,09,25,15.00
2007,08,22,09,26,15.00
2007,08,22,09,27,15.00
2007,08,22,09,28,15.00
2007,08,22,09,29,15.00
2007,08,22,09,30,15.00
2007,08,22,09,31,15.00
2007,08,22,09,32,15.00
2007,08,22,09,33,15.00
2007,08,22,09,34,15.00
2007,08,22,09,35,15.00
2007,08,22,09,36,15.00
2007,08,22,09,37,15.00
2007,08,22,09,38,15.00
2007,08,22,09,39,15.00
2007,08,22,09,40,15.00
2007,08,22,09,41,15.00
2007,08,22,09,42,15.00
2007,08,22,09,43,15.10
2007,08,22,09,44,15.10
2007,08,22,09,45,15.10
2007,08,22,09,46,15.10
2007,08,22,09,47,15.20
2007,08,22,09,48,15.20
2007,08,22,09,49,15.20
2007,08,22,09,50,15.30
2007,08,22,09,51,15.30
2007,08,22,09,52,15.30
2007,08,22,09,53,15.30
2007,08,22,09,54,15.30
2007,08,22,09,55,15.30
2007,08,22,09,56,15.40
2007,08,22,09,57,15.40
2007,08,22,09,58,15.40
2007,08,22,09,59,15.50
2007,08,22,10,00,15.50
2007,08,22,10,01,15.60
2007,08,22,10,02,15.60
2007,08,22,10,03,15.70
2007,08,22,10,04,15.70
2007,08,22,10,05,15.70
2007,08,22,10,06,15.70
2007,08,22,10,07,15.70
2007,08,22,10,08,15.80
2007,08,22,10,09,15.80
2007,08,22,10,10,15.80
2007,08,22,10,11,15.80
2007,08,22,10,12,15.90
2007,08,22,10,13,15.90
2007,08,22,10,14,15.90
2007,08,22,10,15,16.00
2007,08,22,10,16,16.00
2007,08,22,10,17,16.00
2007,08,22,10,18,16.10
2007,08,22,10,19,16.10
2007,08,22,10,20,16.10
2007,08,22,10,21,16.10
2007,08,22,10,22,16.10
2007,08,22,10,23,16.00
2007,08,22,10,24,16.00
2007,08,22,10,25,15.90
2007,08,22,10,26,15.90
2007,08,22,10,27,15.80
2007,08,22,10,28,15.80
2007,08,22,10,29,15.80
2007,08,22,10,30,15.80
2007,08,22,10,31,15.70
2007,08,22,10,32,15.70
2007,08,22,10,33,15.70
2007,08,22,10,34,15.70
2007,08,22,10,35,15.70
2007,08,22,10,36,15.70
2007,08,22,10,37,15.70
2007,08,22,10,38,15.70
2007,08,22,10,39,15.70
2007,08,22,10,40,15.70
2007,08,22,10,41,15.70
2007,08,22,10,42,15.70
2007,08,22,10,43,15.70
2007,08,22,10,44,15.70
2007,08,22,10,45,15.70
2007,08,22,10,46,15.80
2007,08,22,10,47,15.80
2007,08,22,10,48,15.80
2007,08,22,10,49,15.80
2007,08,22,10,50,15.80
2007,08,22,10,51,15.80
2007,08,22,10,52,15.80
2007,08,22,10,53,15.80
2007,08,22,10,54,15.80
2007,08,22,10,55,15.80
2007,08,22,10,56,15.90
2007,08,22,10,57,15.90
2007,08,22,10,58,15.90
2007,08,22,10,59,15.90
2007,08,22,11,00,15.90
2007,08,22,11,01,15.90
2007,08,22,11,02,16.00
2007,08,22,11,03,16.00
2007,08,22,11,04,16.00
2007,08,22,11,05,16.00
2007,08,22,11,06,16.00
2007,08,22,11,07,15.90
2007,08,22,11,08,15.90
2007,08,22,11,09,15.90
2007,08,22,11,10,15.90
2007,08,22,11,11,15.90
2007,08,22,11,12,15.90
2007,08,22,11,13,15.90
2007,08,22,11,14,15.90
2007,08,22,11,15,15.90
2007,08,22,11,16,15.90
2007,08,22,11,17,16.00
2007,08,22,11,18,16.00
2007,08,22,11,19,16.10
2007,08,22,11,20,16.10
2007,08,22,11,21,16.20
2007,08,22,11,22,16.20
2007,08,22,11,23,16.20
2007,08,22,11,24,16.20
2007,08,22,11,25,16.20
2007,08,22,11,26,16.20
2007,08,22,11,27,16.20
2007,08,22,11,28,16.20
2007,08,22,11,29,16.20
2007,08,22,11,30,16.20
2007,08,22,11,31,16.20
2007,08,22,11,32,16.20
2007,08,22,11,33,16.30
2007,08,22,11,34,16.30
2007,08,22,11,35,16.30
2007,08,22,11,36,16.30
2007,08,22,11,37,16.30
2007,08,22,11,38,16.30
2007,08,22,11,39,16.40
2007,08,22,11,40,16.40
2007,08,22,11,41,16.40
2007,08,22,11,42,16.40
2007,08,22,11,43,16.50
2007,08,22,11,44,16.50
2007,08,22,11,45,16.50
2007,08,22,11,46,16.60
2007,08,22,11,47,16.60
2007,08,22,11,48,16.60
2007,08,22,11,49,16.60
2007,08,22,11,50,16.60
2007,08,22,11,51,16.60
2007,08,22,11,52,16.60
2007,08,22,11,53,16.50
2007,08,22,11,54,16.50
2007,08,22,11,55,16.40
2007,08,22,11,56,16.40
2007,08,22,11,57,16.30
2007,08,22,11,58,16.30
2007,08,22,11,59,16.20
2007,08,22,12,00,16.20
2007,08,22,12,01,16.10
2007,08,22,12,02,16.10
2007,08,22,12,03,16.10
2007,08,22,12,04,16.10
2007,08,22,12,05,16.10
2007,08,22,12,06,16.00
2007,08,22,12,07,16.00
2007,08,22,12,08,16.00
2007,08,22,12,09,16.00
2007,08,22,12,10,16.00
2007,08,22,12,11,16.00
2007,08,22,12,12,15.90
2007,08,22,12,13,15.90
2007,08,22,12,14,15.90
2007,08,22,12,15,15.90
2007,08,22,12,16,15.90
2007,08,22,12,17,15.90
2007,08,22,12,18,15.90
2007,08,22,12,19,15.90
2007,08,22,12,20,15.90
2007,08,22,12,21,15.90
2007,08,22,12,22,16.00
2007,08,22,12,23,16.00
2007,08,22,12,24,16.10
2007,08,22,12,25,16.10
2007,08,22,12,26,16.20
2007,08,22,12,27,16.20
2007,08,22,12,28,16.30
2007,08,22,12,29,16.30
2007,08,22,12,30,16.30
2007,08,22,12,31,16.30
2007,08,22,12,32,16.30
2007,08,22,12,33,16.40
2007,08,22,12,34,16.40
2007,08,22,12,35,16.40
2007,08,22,12,36,16.40
2007,08,22,12,37,16.40
2007,08,22,12,38,16.40
2007,08,22,12,39,16.40
2007,08,22,12,40,16.40
2007,08,22,12,41,16.40
2007,08,22,12,42,16.40
2007,08,22,12,43,16.40
2007,08,22,12,44,16.50
2007,08,22,12,45,16.50
2007,08,22,12,46,16.60
2007,08,22,12,47,16.60
2007,08,22,12,48,16.60
2007,08,22,12,49,16.70
2007,08,22,12,50,16.80
2007,08,22,12,51,16.80
2007,08,22,12,52,16.90
2007,08,22,12,53,16.90
2007,08,22,12,54,17.00
2007,08,22,12,55,17.10
2007,08,22,12,56,17.10
2007,08,22,12,57,17.10
2007,08,22,12,58,17.20
2007,08,22,12,59,17.20
2007,08,22,13,00,17.20
2007,08,22,13,01,17.20
2007,08,22,13,02,17.20
2007,08,22,13,03,17.30
2007,08,22,13,04,17.30
2007,08,22,13,05,17.30
2007,08,22,13,06,17.30
2007,08,22,13,07,17.30
2007,08,22,13,08,17.30
2007,08,22,13,09,17.30
2007,08,22,13,10,17.30
2007,08,22,13,11,17.20
2007,08,22,13,12,17.10
2007,08,22,13,13,17.10
2007,08,22,13,14,17.00
2007,08,22,13,15,17.00
2007,08,22,13,16,17.00
2007,08,22,13,17,17.00
2007,08,22,13,18,17.00
2007,08,22,13,19,17.10
2007,08,22,13,20,17.20
2007,08,22,13,21,17.20
2007,08,22,13,22,17.30
2007,08,22,13,23,17.40
2007,08,22,13,24,17.50
2007,08,22,13,25,17.50
2007,08,22,13,26,17.50
2007,08,22,13,27,17.30
2007,08,22,13,28,17.30
2007,08,22,13,29,17.20
2007,08,22,13,30,17.10
2007,08,22,13,31,17.10
2007,08,22,13,32,17.10
2007,08,22,13,33,17.00
2007,08,22,13,34,17.00
2007,08,22,13,35,16.90
2007,08,22,13,36,16.90
2007,08,22,13,37,17.00
2007,08,22,13,38,17.00
2007,08,22,13,39,17.10
2007,08,22,13,40,17.20
2007,08,22,13,41,17.20
2007,08,22,13,42,17.30
2007,08,22,13,43,17.40
2007,08,22,13,44,17.40
2007,08,22,13,45,17.50
2007,08,22,13,46,17.50
2007,08,22,13,47,17.60
2007,08,22,13,48,17.60
2007,08,22,13,49,17.60
2007,08,22,13,50,17.60
2007,08,22,13,51,17.60
2007,08,22,13,52,17.60
2007,08,22,13,53,17.60
2007,08,22,13,54,17.60
2007,08,22,13,55,17.60
2007,08,22,13,56,17.60
2007,08,22,13,57,17.60
2007,08,22,13,58,17.60
2007,08,22,13,59,17.60
2007,08,22,14,00,17.60
2007,08,22,14,01,17.60
2007,08,22,14,02,17.60
2007,08,22,14,03,17.60
2007,08,22,14,04,17.60
2007,08,22,14,05,17.50
2007,08,22,14,06,17.50
2007,08,22,14,07,17.40
2007,08,22,14,08,17.40
2007,08,22,14,09,17.30
2007,08,22,14,10,17.30
2007,08,22,14,11,17.20
2007,08,22,14,12,17.20
2007,08,22,14,13,17.10
2007,08,22,14,14,17.00
2007,08,22,14,15,17.00
2007,08,22,14,16,16.90
2007,08,22,14,17,16.90
2007,08,22,14,18,16.90
2007,08,22,14,19,16.80
2007,08,22,14,20,16.80
2007,08,22,14,21,16.80
2007,08,22,14,22,16.90
2007,08,22,14,23,16.90
2007,08,22,14,24,17.00
2007,08,22,14,25,17.10
2007,08,22,14,26,17.10
2007,08,22,14,27,17.20
2007,08,22,14,28,17.30
2007,08,22,14,29,17.40
2007,08,22,14,30,17.50
2007,08,22,14,31,17.60
2007,08,22,14,32,17.70
2007,08,22,14,33,17.80
2007,08,22,14,34,17.90
2007,08,22,14,35,18.00
2007,08,22,14,36,18.10
2007,08,22,14,37,18.20
2007,08,22,14,38,18.30
2007,08,22,14,39,18.40
2007,08,22,14,40,18.50
2007,08,22,14,41,18.60
2007,08,22,14,42,18.60
2007,08,22,14,43,18.60
2007,08,22,14,44,18.70
2007,08,22,14,45,18.60
2007,08,22,14,46,18.60
2007,08,22,14,47,18.60
2007,08,22,14,48,18.50
2007,08,22,14,49,18.40
2007,08,22,14,50,18.40
2007,08,22,14,51,18.30
2007,08,22,14,52,18.20
2007,08,22,14,53,18.10
2007,08,22,14,54,18.00
2007,08,22,14,55,17.90
2007,08,22,14,56,17.90
2007,08,22,14,57,17.80
2007,08,22,14,58,17.70
2007,08,22,14,59,17.70
2007,08,22,15,00,17.70
2007,08,22,15,01,17.70
2007,08,22,15,02,17.70
2007,08,22,15,03,17.70
2007,08,22,15,04,17.80
2007,08,22,15,05,17.80
2007,08,22,15,06,17.90
2007,08,22,15,07,18.00
2007,08,22,15,08,18.10
2007,08,22,15,09,18.20
2007,08,22,15,10,18.30
2007,08,22,15,11,18.40
2007,08,22,15,12,18.40
2007,08,22,15,13,18.50
2007,08,22,15,14,18.60
2007,08,22,15,15,18.70
2007,08,22,15,16,18.80
2007,08,22,15,17,18.90
2007,08,22,15,18,19.00
2007,08,22,15,19,19.10
2007,08,22,15,20,19.30
2007,08,22,15,21,19.40
2007,08,22,15,22,19.40
2007,08,22,15,23,19.50
2007,08,22,15,24,19.50
2007,08,22,15,25,19.50
2007,08,22,15,26,19.50
2007,08,22,15,27,19.60
2007,08,22,15,28,19.60
2007,08,22,15,29,19.70
2007,08,22,15,30,19.70
2007,08,22,15,31,19.60
2007,08,22,15,32,19.50
2007,08,22,15,33,19.40
2007,08,22,15,34,19.30
2007,08,22,15,35,19.30
2007,08,22,15,36,19.30
2007,08,22,15,37,19.20
2007,08,22,15,38,19.20
2007,08,22,15,39,19.20
2007,08,22,15,40,19.20
2007,08,22,15,41,19.20
2007,08,22,15,42,19.10
2007,08,22,15,43,19.10
2007,08,22,15,44,19.00
2007,08,22,15,45,19.10
2007,08,22,15,46,19.10
2007,08,22,15,47,19.10
2007,08,22,15,48,19.20
2007,08,22,15,49,19.30
2007,08,22,15,50,19.50
2007,08,22,15,51,19.60
2007,08,22,15,52,19.80
2007,08,22,15,53,20.00
2007,08,22,15,54,20.20
2007,08,22,15,55,20.40
2007,08,22,15,56,20.50
2007,08,22,15,57,20.60
2007,08,22,15,58,20.80
2007,08,22,15,59,20.90
2007,08,22,16,00,21.00
2007,08,22,16,01,21.10
2007,08,22,16,02,21.20
2007,08,22,16,03,21.30
2007,08,22,16,04,21.30
2007,08,22,16,05,21.30
2007,08,22,16,06,21.30
2007,08,22,16,07,21.30
2007,08,22,16,08,21.30
2007,08,22,16,09,21.30
2007,08,22,16,10,21.30
2007,08,22,16,11,21.40
2007,08,22,16,12,21.40
2007,08,22,16,13,21.50
2007,08,22,16,14,21.50
2007,08,22,16,15,21.50
2007,08,22,16,16,21.40
2007,08,22,16,17,21.30
2007,08,22,16,18,21.30
2007,08,22,16,19,21.10
2007,08,22,16,20,21.10
2007,08,22,16,21,21.10
2007,08,22,16,22,21.10
2007,08,22,16,23,21.10
2007,08,22,16,24,21.20
2007,08,22,16,25,21.20
2007,08,22,16,26,21.20
2007,08,22,16,27,21.20
2007,08,22,16,28,21.20
2007,08,22,16,29,21.20
2007,08,22,16,30,21.30
2007,08,22,16,31,21.30
2007,08,22,16,32,21.30
2007,08,22,16,33,21.30
2007,08,22,16,34,21.20
2007,08,22,16,35,21.30
2007,08,22,16,36,21.30
2007,08,22,16,37,21.30
2007,08,22,16,38,21.30
2007,08,22,16,39,21.30
2007,08,22,16,40,21.20
2007,08,22,16,41,21.10
2007,08,22,16,42,21.00
2007,08,22,16,43,21.00
2007,08,22,16,44,21.00
2007,08,22,16,45,21.00
2007,08,22,16,46,21.00
2007,08,22,16,47,21.10
2007,08,22,16,48,21.20
2007,08,22,16,49,21.20
2007,08,22,16,50,21.20
2007,08,22,16,51,21.20
2007,08,22,16,52,21.20
2007,08,22,16,53,21.10
2007,08,22,16,54,20.90
2007,08,22,16,55,20.80
2007,08,22,16,56,20.70
2007,08,22,16,57,20.60
2007,08,22,16,58,20.60
2007,08,22,16,59,20.60
2007,08,22,17,00,20.60
2007,08,22,17,01,20.50
2007,08,22,17,02,20.40
2007,08,22,17,03,20.30
2007,08,22,17,04,20.30
2007,08,22,17,05,20.30
2007,08,22,17,06,20.30
2007,08,22,17,07,20.30
2007,08,22,17,08,20.30
2007,08,22,17,09,20.30
2007,08,22,17,10,20.30
2007,08,22,17,11,20.30
2007,08,22,17,12,20.30
2007,08,22,17,13,20.30
2007,08,22,17,14,20.40
2007,08,22,17,15,20.50
2007,08,22,17,16,20.50
2007,08,22,17,17,20.60
2007,08,22,17,18,20.60
2007,08,22,17,19,20.70